Regional Weather Roundup
Issued by NWS Green Bay, WI

Home | Current Version | Previous Version | Text Only | Print | Product List | Glossary On
Versions: 1 2 3 4 5 6 7 8 9 10 11 12 13 14 15 16 17 18 19 20 21 22 23 24 25 26 27 28 29 30 31 32 33 34 35 36 37 38 39 40 41 42 43 44 45 46 47 48 49 50
000
ASUS43 KGRB 302311
RWRGRB

NORTH-CENTRAL AND NORTHEAST WISCONSIN REGIONAL WEATHER ROUNDUP
NATIONAL WEATHER SERVICE GREEN BAY WI
600 PM CDT SUN AUG 30 2015

WIZ005-009-010>012-018-019-310000-
NORTH CENTRAL WISCONSIN

CITY           SKY/WX    TMP DP  RH WIND       PRES   REMARKS
IRONWOOD       SUNNY     79  63  57 SW8G16    29.87S
MANITOWISH WTR SUNNY     76  63  64 SW9       29.95S
ARBOR VITAE    SUNNY     77  65  67 SW7       29.96S
EAGLE RIVER    SUNNY     75  60  60 SW9       29.96S
LAND O LAKES   SUNNY     76  63  62 S5        29.96S
RHINELANDER    SUNNY     75  63  66 SW10      29.99S
PHILLIPS       SUNNY     76  64  67 SW10      29.96S
ANTIGO         SUNNY     74  63  67 SW10      30.00S
TOMAHAWK       SUNNY     74  64  68 SW5       29.98F
MERRILL        SUNNY     76  65  68 SW10      29.99S
$$

WIZ013-073-310000-
NORTHEAST WISCONSIN

CITY           SKY/WX    TMP DP  RH WIND       PRES   REMARKS
IRON MOUNTAIN  SUNNY     76  63  64 S8        29.94S
MARINETTE      SUNNY     73  63  68 SW8       29.96R
OCONTO         SUNNY     73  65  75 SW6       29.97S
$$

WIZ017-030-035>037-045-310000-
CENTRAL WISCONSIN

CITY           SKY/WX    TMP DP  RH WIND       PRES   REMARKS
MEDFORD        SUNNY     72  64  75 S7        29.99F
WAUSAU         SUNNY     76  63  64 SW12      29.98S
MOSINEE        SUNNY     73  64  73 SW8       30.00F
MARSHFIELD     SUNNY     76  62  62 SW9       29.99F
WISC RAPIDS    SUNNY     75  63  66 S9        30.00F
STEVENS POINT  SUNNY     73  62  67 SW9       30.00S
WAUPACA        SUNNY     76  65  67 S7        29.99F
SHAWANO        SUNNY     75  65  69 SW5       29.99S
CLINTONVILLE   SUNNY     73  63  68 S9        29.99S
WAUTOMA        SUNNY     75  66  73 S7        30.00F
$$

WIZ038-039-048-051-310000-
FOX VALLEY

CITY           SKY/WX    TMP DP  RH WIND       PRES   REMARKS
NWS GREEN BAY  SUNNY     73  64  73 SW7       29.99F
APPLETON       SUNNY     72  63  73 S9        29.99F
OSHKOSH        SUNNY     72  64  76 SW5       30.00F
FOND DU LAC    SUNNY     72  64  76 S8        30.00F
$$

WIZ022-050-052-310000-
EAST CENTRAL WISCONSIN

CITY           SKY/WX    TMP DP  RH WIND       PRES   REMARKS
EPHRAIM        FAIR      72  63  74 SW5       29.97S
STURGEON BAY   SUNNY     73  63  68 SW9       30.00F
MANITOWOC      SUNNY     67  61  81 MISG      30.01S
SHEBOYGAN      SUNNY     68  63  84 SE5       30.01F
$$

LMZ563-521-522-541>543-310000-
LAKESHORE

STATION/POSITION TIME  TEMP    WIND        PRES    VSBY  WAVE
                       AIR SEA DIR/SP/G                  HT/PER
                 (UTC) (F)     (DEG/KT/KT) (MB)    (MI)  (FT/S)
SHEBOYGAN LKSHOR 2300   62     180/ 16/ 16 1016.4F
NORTHPORT PIER   2200   68     150/  6/ 10 1014.6F
N MID LAKE BUOY  2250   65 65  200/ 16/ 17 1014.4F         2/ 4
S GREEN BAY BUOY 2230   68 64  200/  8/ 12 1016.5F
CHAMBERS ISLAND  2200   71     180/  7/ 15 1014.9F
$$


USA.gov is the U.S. government's official web portal to all federal, state and local government web resources and services.